Location: Bishop�s Knoyle
(51.0728°N, 2.1714°W)
Time: 05:54:00
(UTC+00:00)

CENTAUR R/B - Pass Details

Date: 23 January 2021
Orbit: 742 x 1446 km, 63.5° (Epoch: 02 March)

Event Time Altitude Azimuth Distance (km) Brightness Sun altitude
Rises 04:53:30 0° 149° (SSE) 3,412 5.7 -28.6°
Reaches altitude 10° 04:58:15 10° 112° (ESE) 2,647 5.6 -27.8°
Maximum altitude 04:59:35 11° 100° (E) 2,646 5.7 -27.6°
Drops below altitude 10° 05:00:57 10° 87° (E) 2,753 5.9 -27.4°
Sets 05:06:21 0° 54° (NE) 3,925 6.5 -26.5°
